{"data":{"norad_id":55923,"epoch":"2026-09-20T04:54:41.127552Z","epoch_age_seconds":128614,"freshness":"FRESH","line1":"1 55923U 23037K   26263.20464268  .00000740  00000+0  69772-4 0  9995","line2":"2 55923  70.0003 174.0147 0002841 268.3463  91.7371 14.98332818192622","mean_motion":14.98332818,"eccentricity":0.0002841,"inclination_deg":70.0003,"raan_deg":174.0147,"arg_perigee_deg":268.3463,"mean_anomaly_deg":91.7371,"bstar":6.9772e-5,"rev_number":19262,"period_min":96.106818371778,"perigee_km":570.07262920098,"apogee_km":574.02172385008,"semimajor_km":6950.1841765255,"source":"CELESTRAK","updated_at":"2026-09-21T09:00:33.323842Z"}}